Погода в Бауске

Погода в Бауске : погода сейчас, прогноз погоды и архив. Всё, что Вы хотите узнать о погоде в Бауске!

Поиск расширенной информации на нашем сайте:

Другие новости

Новости СМИ2

Главная страница сайта

Новости сайта

03.07.2017

Напоминаем, что на нашем специализированном сайте Метеоцентр.Азия вы можете получить высокодетализированные автоматические прогнозы погоды по пунктам России, СНГ и мира в авиационном формате (включающие направление и скорость ветра, видимость, явления погоды, количество и форму облачности, нижнюю и верхнюю границу облачности).


Погода в Бауске - сегодня

Время (UTC), дата Ветер
(°,м/с) 
Видим.   Явления Облачность Т
(°С)
Тd
(°С)
f(%) Тe
(°С)
Pmin
(гПа)
dP
(гПа)
Po
(мм)
O2
(г/м3)
Тmin Tmax R s Состояние
почвы
18 06.02.18 200 (Ю) 4-6  н/о    н/о 
-3.8 -5.2 90 -7  1012.8  0.1  757  310           
21 06.02.18 200 (Ю) 5-6  н/о    н/о 
-3.7 -5.7 86 -7  1014.1  1.3  758  310           
00 07.02.18 220 (ЮЗ) 5-9  н/о    н/о 
-3.3 -5.8 83 -7  1015.3  1.2  759  310           
03 07.02.18 220 (ЮЗ) 4-6  н/о    н/о 
-3.6 -5.7 85 -7  1016.4  1.1  759  311           
06 07.02.18 210 (ЮЗ) 6-9  н/о    н/о 
-3.2 -5.3 85 -7  1017.5  1.1  760  311           
09 07.02.18 210 (ЮЗ) 5-8  н/о    н/о 
-3.2 -6 81 -7  1019.2  1.7  761  311           
12 07.02.18 200 (Ю) 6-8  н/о    н/о 
-2.4 -6.1 76 -6  1020.2  762  311           
15 07.02.18 190 (Ю) 4-6  н/о    н/о 
-3.4 -7.2 75 -6  1021  0.8  763  312           
18 07.02.18 160 (Ю) 2-3  н/о    н/о 
-6.9 -9.7 80 -8  1021.9  0.8  763  317           
21 07.02.18 150 (ЮВ) 2-2  н/о    н/о 
-8.7 -12.1 76 -10  1022.6  0.7  764  319           
00 08.02.18 140 (ЮВ) 3-3  н/о    н/о 
-11.6 -14 82 -15  1022.5  0.1  764  323           
03 08.02.18 150 (ЮВ) 5-7  н/о    н/о 
-10.8 -11.9 92 -16  1022.6  0.1  764  322           
06 08.02.18 100 (В) 2-3  н/о    н/о 
-8.4 -9 95 -10  1022.1  -0.4  764  318           
09 08.02.18 080 (В) 2-2  н/о    н/о 
-7.7 -8.4 95 -9  1022.3  0.2  764  318           
15 08.02.18 140 (ЮВ) 1-1  н/о    н/о 
-5.9 -6.7 94 -6  1021.8  -0.1  763  315           
18 08.02.18 070 (В) 1-2  н/о    н/о 
-6.1 -7 93 -6  1022  0.2  764  315           
21 08.02.18 070 (В) 1-2  н/о    н/о 
-6.5 -7.4 93 -6  1022.1  0.1  764  316           
00 09.02.18 110 (В) 1-2  н/о    н/о 
-6.4 -7.1 95 -6  1022.1  0.1  764  316           
03 09.02.18 110 (В) 1-2  н/о    н/о 
-6.9 -7.6 95 -7  1022.4  0.3  764  317           
06 09.02.18 030 (СВ) 1-2  н/о    н/о 
-6.4 -7.3 93 -6  1022.2  -0.2  764  316           
09 09.02.18 020 (С) 2-4  н/о    н/о 
-5.8 -6.6 94 -7  1022.5  0.3  764  315           
12 09.02.18 010 (С) 2-4  н/о    н/о 
-6.2 -6.8 96 -8  1022.6  0.1  764  316           
15 09.02.18 350 (С) 3-4  н/о    н/о 
-6.2 -7.1 93 -9  1022.2  -0.5  764  316           
18 09.02.18 070 (В) 2-3  н/о    н/о 
-8.4 -9.2 94 -10  1022.7  0.5  764  319           
09 22.02.18 тихо () -0  н/о    н/о 
-11 -13.9 79 -11  1032  0.7  771  325           
Время (UTC), дата Ветер
(°,м/с) 
Видим.   Явления Облачность Т
(°С)
Тd
(°С)
f(%) Тe
(°С)
Pmin
(гПа)
dP
(гПа)
Po
(мм)
O2
(г/м3)
Тmin Tmax R s Состояние
почвы

Для получения пояснительной информации подведите курсор к названию столбца.

ПОГОДА в Бауске - архив

Всё, что Вы хотите узнать о погоде в Бауске - удобно и подробно!

Выберите нужную дату (начиная с 1 января 2015* года) и нажмите кнопку "Найти".
Будут отображены архивные сводки погоды по пункту Бауска, начиная с указанной даты.


Отображать данные в формате CSV (для использования в таблицах Excel)


Внимание! Наш архив погоды предназначен исключительно для личного некоммерческого использования в познавательных целях. Если Вам необходимы официальные справки о состоянии погоды (для производственных, юридических, коммерческих и т.п. целей), обращайтесь в органы Росгидромета.

*Примечание: данная дата относится к архиву по метеостанциям СССР (Россия, СНГ, Балтия).
Архив по метеостанциям Зарубежной Европы и Азии (кроме Китая) хранится 10 дней, по другим регионам земного шара (Китай, Африка, Америка, Австралия, Океания) - 1 день.

Бауска - район местоположения метеостанции


Название, широта, долгота, высота метеостанции:
Бауска 56.4°ш. 24.2°д. 33 м над ур. моря [Латвия]

Дополнительная информация

В oтличие oт бoльшинства пoгoдных сайтoв мы публикуем пoдрoбную метеoинфoрмацию в детальнoм прoфессиoнальнoм фoрмате.

Характеристики температуры и влажнoсти вoздуха измеряются на высoте 2 м в тени вдали oт зданий и деревьев.
Скoрoсть ветра измеряется на высoте 10 м (на урoвне рoста челoвека скoрoсть ветра ниже в 1.5-2 раза). Если метеoстанция нахoдится в гoрoде или в лесу, тo скoрoсть ветра занижена на 2-4 м/с пo сравнению с oткрытым местoм. Скoрoсть ветра над акватoриями крупных рек и oзёр, а также на вершинах хoлмoв на 2-5 м/с выше, чем в oбычных услoвиях.
Атмoсфернoе давление в разных тoчках местнoсти мoжет значительнo oтличаться oт давления на метеoстанции, в зависимoсти oт услoвий рельефа (при пoдъёме на 10 м давление пoнижается примернo на 1 мм рт.ст.).